User: anonymous   Login
Location: Unspecified
(0.0000°N, 0.0000°E)
Time: 10:21:37
(UTC+00:00)
Language:

XW-2A - Orbit

View from above orbital plane
View from above orbital plane
View from above satellite
View from above satellite

Ground track
Ground track

The orbit data is extracted from the following two-line orbital elements,

1 40903U 15049E   21341.17327918  .00006867  00000-0  13650-3 0  9999
2 40903  97.2139  35.0861 0013403 102.2142 342.5553 15.47187375349488
Epoch (UTC): 07 December 2021 04:09:31
Eccentricity: 0.0013403
inclination: 97.2139°
perigee height: 416 km
apogee height: 434 km
right ascension of ascending node: 35.0861°
argument of perigee: 102.2142°
revolutions per day: 15.47187375
mean anomaly at epoch: 342.5553°
orbit number at epoch: 34948

The dashed part of the orbit path shows where the satellite is in the earth's shadow,  

DLR